Location: Cronhütte
(48.9135°N, 9.6869°E)
Time: 08:47:44
(UTC+00:00)

BlueWalker 3 - Visible Passes

Search period start: 21 January 2026 00:00
Search period end: 31 January 2026 00:00
Orbit: 451 x 463 km, 53.2° (Epoch: 20 January)

Date Brightness Start Highest point End Pass type
(mag) Time Alt. Az. Time Alt. Az. Time Alt. Az.
21 Jan 3.6 17:23:00 10° S 17:25:19 16° SE 17:25:58 16° ESE visible
21 Jan 4.4 18:58:47 10° WSW 18:59:43 17° WSW 18:59:43 17° WSW visible
22 Jan 3.9 16:48:17 10° SSE 16:50:01 13° SE 16:51:43 10° ESE visible
22 Jan 2.6 18:23:23 10° SW 18:25:59 44° SSW 18:25:59 44° SSW visible
23 Jan 1.9 17:48:00 10° SW 17:51:29 53° SSE 17:52:09 45° ESE visible
23 Jan 5.1 19:25:34 10° W 19:25:53 12° W 19:25:53 12° W visible
24 Jan 2.3 17:12:38 10° SW 17:16:02 43° SE 17:18:14 19° E visible
24 Jan 3.7 18:49:59 10° W 18:51:58 29° W 18:51:58 29° W visible
25 Jan 2.7 16:37:18 10° SSW 16:40:34 34° SE 16:43:50 10° ENE visible
25 Jan 1.9 18:14:24 10° W 18:17:57 60° NNW 18:17:58 60° NNW visible
26 Jan 1.8 17:38:48 10° WSW 17:42:22 69° NNW 17:43:54 31° NE visible
26 Jan 4.7 19:16:48 10° WNW 19:17:38 16° WNW 19:17:38 16° WNW visible
27 Jan 1.7 17:03:12 10° WSW 17:06:46 81° NNW 17:09:47 14° ENE visible
27 Jan 3.3 18:41:10 10° WNW 18:43:31 31° NW 18:43:31 31° NW visible
28 Jan 2.4 18:05:29 10° W 18:08:53 41° N 18:09:21 39° NNE visible
29 Jan 2.4 17:29:45 10° W 17:33:11 44° N 17:35:09 22° NE visible
29 Jan 4.3 19:07:38 10° WNW 19:08:53 19° NW 19:08:53 19° NW visible
30 Jan 2.3 16:54:01 10° W 16:57:29 47° NNW 17:00:56 10° ENE visible
30 Jan 2.8 18:31:58 10° WNW 18:34:39 37° NNW 18:34:39 37° NNW visible
